(266265) = 2007 AY3

Discovered at Catalina on 2007-01-08 by CSS.

Orbit

Orbit type: Main Belt

Note: WebGL enabled browser required.

epoch2023-02-25.0
epoch JD2460000.5
perihelion date2022-09-04.60409
perihelion JD2459827.10409
argument of perihelion (°)164.00832
ascending node (°)353.38335
inclination (°)6.26942
eccentricity0.1034169
perihelion distance (AU)2.1931906
Tisserand w.r.t. Jupiter3.5
ΔV w.r.t. Earth (km/sec)9.4
semimajor axis (AU)2.4461655
mean anomaly (°)44.66979
mean daily motion (°/day)0.25761730
aphelion distance (AU)2.699
period (years)3.83
P-vector [x]-0.92334415
P-vector [y]0.33923838
P-vector [z]0.17986914
Q-vector [x]-0.38376719
Q-vector [y]-0.79998007
Q-vector [z]-0.46125334
absolute magnitude16.6
phase slope0.15
uncertainty0
referenceMPO 745323
observations used550
oppositions14
arc length (days)7943
first opposition used2001
last opposition used2023
residual rms (arc-secs)0.72
perturbers coarse indicatorM-v
perturbers precise indicator003Ek
first observation date used2001-09-21.0
last observation date used2023-06-21.0
computer nameMPCLINUX
JD of orbit computation2456639.720961
perihelion JD uncertainty (days)5.7835E-05
argument of perihelion uncertainty (°)2.8377E-05
ascending node uncertainty (°)2.3251E-05
inclination uncertainty (°)5.2188E-06
eccentricity uncertainty 6.7905E-08
perihelion distance uncertainty (AU)1.6993E-07
Minimum Orbit Intersection Distances (in AU)
for orbit epoch: 2460000.5, reference: E2023-M85
Mercury1.81641
Venus1.47468
Earth1.20306
Mars0.52727
Jupiter2.27892
Saturn6.68486
Uranus16.2449
Neptune27.2135

Observations

561 total observations over interval: 2001 09 21.18451 – 2023 06 21.306421
These data are available for download (format description).

Date (UT) J2000 RA J2000 Dec Magn Location Ref
2001 09 21.18451 22 37 42.15 -10 16 29.2 19.9   704 – Lincoln Laboratory ETS, New Mexico MPS 213856
2001 09 21.19872 22 37 41.37 -10 16 32.5 20.0   704 – Lincoln Laboratory ETS, New Mexico MPS 213856
2001 09 21.22733 22 37 39.86 -10 16 34.6 20.1   704 – Lincoln Laboratory ETS, New Mexico MPS 213856
2001 09 21.24157 22 37 39.17 -10 16 38.5 19.7   704 – Lincoln Laboratory ETS, New Mexico MPS 213856
2005 08 31.37097 00 10 22.44 +01 08 09.1 20.5 V 691 – Steward Observatory, Kitt Peak-Spacewatch MPS 197131
2005 08 31.38845 00 10 21.64 +01 08 06.6 20.4 V 691 – Steward Observatory, Kitt Peak-Spacewatch MPS 197131
2005 08 31.40599 00 10 20.84 +01 08 04.1 20.3 V 691 – Steward Observatory, Kitt Peak-Spacewatch MPS 197131
2005 09 10.297437 00 02 05.801 +00 38 22.53 20.94 V 645 – Apache Point-Sloan Digital Sky Survey MPS 390481
2005 09 10.300909 00 02 05.608 +00 38 21.84 22.53   645 – Apache Point-Sloan Digital Sky Survey MPS 390481
2005 09 14.37653 23 58 19.94 +00 23 59.6 20.4 V 691 – Steward Observatory, Kitt Peak-Spacewatch MPS 197131
2005 09 14.39391 23 58 18.92 +00 23 56.0 20.2 V 691 – Steward Observatory, Kitt Peak-Spacewatch MPS 197131
2005 09 14.41130 23 58 17.92 +00 23 52.2 20.3 V 691 – Steward Observatory, Kitt Peak-Spacewatch MPS 197131
2005 09 15.265337 23 57 29.869 +00 20 44.48 20.27 V 645 – Apache Point-Sloan Digital Sky Survey MPS 390481
2005 09 15.268809 23 57 29.664 +00 20 43.79 21.10   645 – Apache Point-Sloan Digital Sky Survey MPS 390481
2005 09 22.269077 23 50 47.419 -00 05 38.03 20.02 V 645 – Apache Point-Sloan Digital Sky Survey MPS 390481
2005 09 22.272549 23 50 47.192 -00 05 38.94 20.95   645 – Apache Point-Sloan Digital Sky Survey MPS 390481
2005 09 25.301417 23 47 52.934 -00 17 12.07 20.21 V 645 – Apache Point-Sloan Digital Sky Survey MPS 390481
2005 09 25.304889 23 47 52.728 -00 17 12.88 21.02   645 – Apache Point-Sloan Digital Sky Survey MPS 390481
2005 10 12.227467 23 33 12.481 -01 14 40.65 20.48 V 645 – Apache Point-Sloan Digital Sky Survey MPS 390481
2005 10 12.230939 23 33 12.332 -01 14 41.26 21.58   645 – Apache Point-Sloan Digital Sky Survey MPS 390481
2005 10 30.18954 23 23 41.49 -01 44 39.9 20.8 V G96 – Mt. Lemmon Survey MPS 197131
2005 10 30.19624 23 23 41.35 -01 44 39.7 20.4 V G96 – Mt. Lemmon Survey MPS 197131
2005 10 30.20289 23 23 41.20 -01 44 40.3 20.8 V G96 – Mt. Lemmon Survey MPS 197131
2005 10 30.20957 23 23 41.06 -01 44 40.4 20.5 V G96 – Mt. Lemmon Survey MPS 197131
2005 11 26.199047 23 24 57.033 -01 06 04.67 21.40 V 645 – Apache Point-Sloan Digital Sky Survey MPS 390481
2005 11 26.202519 23 24 57.103 -01 06 03.85 22.16   645 – Apache Point-Sloan Digital Sky Survey MPS 390481
2005 11 30.185797 23 26 37.980 -00 52 02.14 21.54 V 645 – Apache Point-Sloan Digital Sky Survey MPS 390481
2005 11 30.189269 23 26 38.074 -00 52 01.39 22.44   645 – Apache Point-Sloan Digital Sky Survey MPS 390481
2007 01 08.33610 08 43 48.43 +27 24 58.2 19.6 V 703 – Catalina Sky Survey MPS 195601
2007 01 08.34310 08 43 47.82 +27 24 59.0 20.2 V 703 – Catalina Sky Survey MPS 195601
2007 01 08.35015 08 43 47.49 +27 25 00.0 19.8 V 703 – Catalina Sky Survey MPS 195601
2007 01 08.35718 08 43 47.10 +27 25 00.8 19.8 V 703 – Catalina Sky Survey MPS 195601
2007 01 10.24226 08 42 02.05 +27 30 44.7   691 – Steward Observatory, Kitt Peak-Spacewatch MPS 195601
2007 01 10.25958 08 42 01.02 +27 30 47.9   691 – Steward Observatory, Kitt Peak-Spacewatch MPS 195601
2007 01 10.27691 08 41 59.98 +27 30 51.2   691 – Steward Observatory, Kitt Peak-Spacewatch MPS 195601
2007 01 16.25667 08 35 53.54 +27 47 28.0 19.0 R 699 – Lowell Observatory-LONEOS MPS 196441
2007 01 16.28327 08 35 51.76 +27 47 31.7   699 – Lowell Observatory-LONEOS MPS 196441
2007 01 16.30744 08 35 50.13 +27 47 36.2 19.3 V 703 – Catalina Sky Survey MPS 196441
2007 01 16.30991 08 35 50.01 +27 47 36.0   699 – Lowell Observatory-LONEOS MPS 196441
2007 01 16.31397 08 35 49.66 +27 47 36.9 19.6 V 703 – Catalina Sky Survey MPS 196441
2007 01 16.32050 08 35 49.27 +27 47 37.8 19.2 V 703 – Catalina Sky Survey MPS 196441
2007 01 16.32704 08 35 48.80 +27 47 39.6 19.4 V 703 – Catalina Sky Survey MPS 196441
2007 01 16.33655 08 35 48.17 +27 47 40.6   699 – Lowell Observatory-LONEOS MPS 196441
2007 01 18.44822 08 33 29.20 +27 52 42.9 19.2 R 644 – Palomar Mountain/NEAT MPS 197131
2007 01 18.46976 08 33 27.75 +27 52 45.5 19.2 R 644 – Palomar Mountain/NEAT MPS 197131
2007 01 18.49134 08 33 26.21 +27 52 47.7 19.5 R 644 – Palomar Mountain/NEAT MPS 197131
2007 01 23.27819 08 28 01.58 +28 02 11.0 19.5   704 – Lincoln Laboratory ETS, New Mexico MPS 197131
2007 01 23.29039 08 28 00.51 +28 02 09.9 19.6   704 – Lincoln Laboratory ETS, New Mexico MPS 197131
2007 01 23.30260 08 27 59.56 +28 02 11.2 19.5   704 – Lincoln Laboratory ETS, New Mexico MPS 197131
2007 01 23.31482 08 27 58.95 +28 02 15.7 19.5   704 – Lincoln Laboratory ETS, New Mexico MPS 197131
2007 01 28.20627 08 22 22.22 +28 08 16.6 19.2 V G96 – Mt. Lemmon Survey MPS 198211
2007 01 28.21372 08 22 21.68 +28 08 17.0 19.2 V G96 – Mt. Lemmon Survey MPS 198211
2007 01 28.22120 08 22 21.14 +28 08 17.6 19.1 V G96 – Mt. Lemmon Survey MPS 198211
2007 01 28.22855 08 22 20.64 +28 08 18.2 19.0 V G96 – Mt. Lemmon Survey MPS 198211
2007 02 05.29277 08 13 27.47 +28 09 33.4 18.9 R 644 – Palomar Mountain/NEAT MPS 198774
2007 02 05.31388 08 13 26.10 +28 09 32.2 19.5 R 644 – Palomar Mountain/NEAT MPS 198774
2007 02 05.36057 08 13 23.04 +28 09 30.6 19.6 R 644 – Palomar Mountain/NEAT MPS 198774
2007 02 09.17240 08 09 33.94 +28 06 10.5 19.6 V 703 – Catalina Sky Survey MPS 198774
2007 02 09.17887 08 09 33.58 +28 06 10.1 19.8 V 703 – Catalina Sky Survey MPS 198774
2007 02 09.18534 08 09 33.26 +28 06 09.5 18.9 V 703 – Catalina Sky Survey MPS 198774
2007 02 09.19184 08 09 32.83 +28 06 09.3 19.6 V 703 – Catalina Sky Survey MPS 198774
2009 09 18.25549 01 10 08.81 +10 36 54.5 20.3 V 691 – Steward Observatory, Kitt Peak-Spacewatch MPS 295043
2009 09 18.27319 01 10 07.95 +10 36 52.8 20.5 V 691 – Steward Observatory, Kitt Peak-Spacewatch MPS 295043
2009 09 18.29084 01 10 07.09 +10 36 50.8 20.4 V 691 – Steward Observatory, Kitt Peak-Spacewatch MPS 295043
2009 09 22.27260 01 06 51.41 +10 28 36.1 20.3 V 691 – Steward Observatory, Kitt Peak-Spacewatch MPS 295892
2009 09 22.29039 01 06 50.48 +10 28 33.4 20.3 V 691 – Steward Observatory, Kitt Peak-Spacewatch MPS 295892
2009 09 22.30808 01 06 49.55 +10 28 31.1 20.3 V 691 – Steward Observatory, Kitt Peak-Spacewatch MPS 295892
2009 09 26.23610 01 03 21.35 +10 18 27.3 20.2 V 691 – Steward Observatory, Kitt Peak-Spacewatch MPS 296974
2009 09 26.25374 01 03 20.39 +10 18 24.2 20.1 V 691 – Steward Observatory, Kitt Peak-Spacewatch MPS 296974
2009 09 26.27135 01 03 19.42 +10 18 21.5 20.3 V 691 – Steward Observatory, Kitt Peak-Spacewatch MPS 296974
2009 10 15.27831 00 44 56.00 +09 10 47.7 19.8 V G96 – Mt. Lemmon Survey MPS 298352
2009 10 15.28617 00 44 55.57 +09 10 45.6 19.5 V G96 – Mt. Lemmon Survey MPS 298352
2009 10 15.29398 00 44 55.10 +09 10 43.7 20.1 V G96 – Mt. Lemmon Survey MPS 298352
2009 10 15.30137 00 44 54.67 +09 10 41.9 19.9 V G96 – Mt. Lemmon Survey MPS 298352
2009 10 21.25501 00 39 23.58 +08 46 57.5 20.1 V G96 – Mt. Lemmon Survey MPS 299431
2009 10 21.25992 00 39 23.32 +08 46 56.4 20.0 V G96 – Mt. Lemmon Survey MPS 299431
2009 10 21.26478 00 39 23.04 +08 46 55.6 20.1 V G96 – Mt. Lemmon Survey MPS 299431
2009 10 21.26976 00 39 22.78 +08 46 54.3 20.1 V G96 – Mt. Lemmon Survey MPS 299431
2009 10 21.29382 00 39 21.45 +08 46 48.5 19.7 V G96 – Mt. Lemmon Survey MPS 299431
2009 10 21.29890 00 39 21.16 +08 46 47.2 19.6 V G96 – Mt. Lemmon Survey MPS 299431
2009 10 21.30390 00 39 20.88 +08 46 46.2 19.7 V G96 – Mt. Lemmon Survey MPS 299431
2009 10 21.30890 00 39 20.59 +08 46 44.9 19.8 V G96 – Mt. Lemmon Survey MPS 299431
2009 10 23.34131 00 37 33.99 +08 38 50.5 20.5 V 291 – LPL/Spacewatch II MPS 300736
2009 10 23.34529 00 37 33.76 +08 38 49.4 20.5 V 291 – LPL/Spacewatch II MPS 300736
2009 10 23.34918 00 37 33.58 +08 38 48.6 20.4 V 291 – LPL/Spacewatch II MPS 300736
2010 02 16.09979 01 29 28.93 +14 00 42.8 21.8 V G96 – Mt. Lemmon Survey MPS 313333
2010 02 16.10513 01 29 29.29 +14 00 45.7 22.1 V G96 – Mt. Lemmon Survey MPS 313333
